Current weather by "City, St" or "zip code"  
 
Advertise Here

Current Conditions: Branson, MO

Fair


32.0 F

Last Updated on Jan 18 2021, 2:55 am CST
Humidity: 69%
Wind Speed: N 0.0 mph
Barometer 29.96 in
Dewpoint: 23.0 F
Visibility: 10.00 mi
Precip: --
Heat Index: NA
Wind Chill: NA
Current conditions at:

Branson, MO (KBBG)

Lat: 36.5321 Lon: 93.2005

Local Radar Image active severe weather and emergency alerts image image weather storm and storm spotter reports image weather observation monitoring service image
Local
Radar
Active
Alerts
Storm Reports Obs
Monitoring

Sign-up For Email & Text Message Weather Alert Notification Services


Advertise Here

Observation History for Branson, MO


Time Wind
(mph)
Vis
(mi)
Weather Precip (in) Temperature (F) Relative
Humidity
Wind
Chill
(F)
Heat
Index
(F)
Pressure
Air Dwpt altimeter
(in)
sea level
(mb)
Rmks
2:55 am CST N 0.0 10.00 Fair -- 32.0 23.0 69% NA NA 29.96 M
2:35 am CST N 0.0 10.00 Fair -- 32.0 23.0 69% NA NA 29.96 M
1:55 am CST SW 4.6 10.00 Fair -- 32.0 23.0 69% 27 NA 29.97 M
1:35 am CST SW 3.5 10.00 Fair -- 32.0 23.0 69% NA NA 29.97 M
12:55 am CST N 0.0 10.00 A Few Clouds -- 32.0 23.0 69% NA NA 29.96 M
11:55 pm CST N 0.0 10.00 Fair -- 36.0 23.0 60% NA NA 29.97 M
10:55 pm CST W 3.5 10.00 Fair -- 36.0 23.0 60% NA NA 29.97 M
10:35 pm CST W 3.5 10.00 Fair -- 37.0 23.0 56% NA NA 29.96 M
9:55 pm CST W 4.6 10.00 Fair -- 37.0 23.0 56% 33 NA 29.96 M
8:45 pm CST W 11.5 10.00 Partly Cloudy -- 39.0 23.0 52% 32 NA 29.95 M
7:45 pm CST W 10.4 10.00 Mostly Cloudy -- 41.0 24.8 53% 35 NA 29.94 M
6:45 pm CST W 9.2 10.00 A Few Clouds -- 41.0 23.0 49% 35 NA 29.94 M
5:45 pm CST NW 12.7 G 21.9 10.00 A Few Clouds -- 43.0 23.0 46% 36 NA 29.92 M
4:45 pm CST W 10.4 G 17.3 10.00 A Few Clouds -- 45.0 24.8 46% 40 NA 29.91 M
3:45 pm CST W 11.5 G 20.7 10.00 A Few Clouds -- 45.0 24.8 46% 39 NA 29.90 M
2:45 pm CST NW 11.5 G 21.9 10.00 Partly Cloudy -- 43.0 24.8 49% 37 NA 29.90 M
1:45 pm CST W 17.3 G 26.5 10.00 A Few Clouds -- 43.0 24.8 49% 35 NA 29.90 M
12:48 pm CST W 15.0 G 23.0 10.00 Partly Cloudy -- 45.0 24.8 46% 38 NA 29.91 M
11:51 am CST W 13.8 G 21.9 10.00 Partly Cloudy -- 43.0 23.0 46% 36 NA 29.92 M
10:54 am CST W 12.7 G 21.9 10.00 Fair -- 39.0 23.0 52% 31 NA 29.94 M
9:56 am CST SW 8.1 10.00 Fair -- 36.0 23.0 60% 30 NA 29.95 M
8:57 am CST SW 9.2 10.00 Fair -- 32.0 23.0 69% 24 NA 29.95 M
7:58 am CST W 10.4 10.00 Fair -- 32.0 23.0 69% 24 NA 29.94 M
6:59 am CST NW 11.5 10.00 A Few Clouds -- 32.0 23.0 69% 23 NA 29.94 M

Regional Weather Observation


Branson, MO (KBBG)

Fair
32.0 F

Harrison, Boone County Airport, AR (KHRO)

Fair
35.0 F

Springfield, Springfield Regional Airport, MO (KSGF)

Fair
22.0 F

Monett, MO (KHFJ)

Fair
32.0 F

Rogers - Rogers Executive Airport - Carter Field, AR (KROG)

Fair
33.0 F

Flippin, Marion County Regional Airport, AR (KFLP)

Fair
31.0 F